Theta_e
307 310 312 316 320 321 322 322 322 322 322 322 321 320 317 314 311 311 311 311 311 312 313 313 313 313 312 312 312 312 312 312 312 311 311 311 310 310 309 308 307 307
308 310 312 316 319 320 321 322 322 322 322 319 317 315 312 311 310 311 311 311 312 312 313 314 313 312 312 311 310 310 310 310 310 310 310 310 309 309 309 309 308 307
309 310 313 316 318 319 320 321 321 321 318 313 311 310 309 309 310 310 311 311 312 312 313 313 312 312 311 309 308 308 308 308 309 309 309 309 308 308 307 308 308 308
309 311 314 316 318 319 320 320 321 319 314 310 307 307 308 309 309 309 310 311 311 311 312 311 311 309 308 308 307 307 307 306 307 307 307 307 307 306 306 306 306 307
310 312 314 316 318 319 319 319 318 315 310 307 306 306 307 308 309 309 310 310 310 310 310 309 308 307 307 307 306 305 305 305 305 305 305 305 305 305 304 304 304 304
311 313 315 316 317 317 316 315 312 310 307 306 306 306 307 308 308 308 308 308 308 308 307 307 306 306 305 305 304 304 304 303 303 303 302 302 302 302 302 302 301 301
310 312 314 314 314 314 313 311 309 308 306 306 306 307 307 307 307 306 306 306 306 306 305 305 304 304 304 303 303 302 302 302 302 301 301 300 300 300 300 300 300 300
308 310 311 311 311 312 310 308 307 306 306 306 306 306 306 306 305 305 305 305 304 304 303 303 303 302 302 301 301 300 300 300 300 300 300 299 299 299 299 299 299 299
306 307 308 308 308 308 307 306 305 305 305 305 305 305 305 304 304 304 303 303 302 302 301 301 301 300 299 298 298 298 298 298 298 298 297 297 297 297 297 298 298 298
304 305 305 305 305 305 305 304 304 304 304 304 304 304 303 303 302 302 301 300 300 299 299 298 298 297 297 297 297 297 297 297 297 297 296 296 296 296 296 295 295 295
302 303 303 303 303 303 303 303 304 304 303 303 303 302 302 301 300 299 299 298 297 297 296 296 296 295 295 295 295 295 295 295 295 295 294 294 294 293 293 293 292 292
301 302 302 302 302 303 303 303 303 302 302 301 301 300 299 298 297 296 296 295 295 294 294 294 293 293 293 292 292 292 292 292 292 291 291 291 291 291 290 290 290 290
300 300 301 301 302 302 302 302 301 301 300 299 298 297 296 295 294 294 293 292 292 292 292 292 291 291 291 291 291 291 290 290 290 290 290 290 290 290 289 289 289 289
298 299 299 300 300 300 300 300 299 299 297 296 295 294 293 292 292 291 291 291 291 291 291 291 291 291 290 290 290 290 290 290 290 289 289 289 289 289 289 289 289 289
297 297 297 298 298 298 298 297 296 295 294 293 292 291 291 290 290 290 290 290 290 290 290 290 290 290 290 290 290 289 289 289 289 289 289 289 289 288 288 288 288 288
294 294 294 295 295 295 294 294 293 292 291 291 290 289 289 289 289 290 290 290 290 290 289 289 289 289 289 289 289 289 289 289 288 288 288 288 288 288 288 288 288 288
292 292 292 292 292 292 291 291 290 290 289 289 288 288 289 289 289 289 289 289 289 289 289 288 288 288 288 288 288 288 288 288 288 288 287 287 287 287 287 287 287 287
291 290 290 290 290 289 289 289 288 288 288 288 288 288 288 288 288 288 288 288 288 288 288 288 288 287 287 287 287 287 287 287 287 287 287 287 287 286 286 286 286 286
289 289 288 288 288 288 287 287 287 287 287 287 287 287 287 287 287 287 287 287 287 287 287 287 287 286 286 286 286 286 286 286 286 286 286 286 286 286 286 286 286 286
287 287 287 287 287 287 287 286 286 286 286 286 286 286 286 286 286 286 286 286 286 286 286 286 286 286 286 286 286 286 286 286 286 286 286 286 286 285 285 285 285 285
286 286 286 286 286 286 286 286 286 286 286 286 286 286 286 286 286 286 286 286 286 286 286 286 286 285 285 285 285 285 285 285 285 285 285 285 285 285 285 285 285 285
286 286 286 285 285 285 285 285 285 285 285 285 285 285 285 285 285 286 286 286 286 285 285 286 285 285 285 285 285 285 285 285 285 285 285 285 285 285 285 285 285 285
285 285 285 285 285 285 285 285 285 285 285 285 285 285 285 285 285 285 285 285 285 285 285 286 285 285 285 285 285 285 285 285 285 285 285 285 285 285 284 285 285 285
285 285 285 285 285 285 285 285 285 285 285 285 285 285 285 285 285 285 285 285 285 285 285 285 285 285 285 285 285 285 284 284 285 284 284 284 284 284 284 284 284 284
284 284 284 285 285 285 285 285 284 284 284 284 284 285 285 284 284 285 285 285 285 285 285 285 285 285 285 285 284 284 284 284 284 284 284 284 284 284 284 284 284 284
284 284 284 284 284 284 284 284 284 284 284 284 284 284 284 284 284 284 285 285 284 285 284 285 285 285 284 284 284 284 284 284 284 284 284 284 284 284 284 284 284 284
Wind_Speed
30 32 32 32 34 34 34 36 36 35 35 35 35 33 30 27 25 24 22 21 19 18 18 18 19 20 21 22 22 22 21 21 21 21 21 20 19 19 19 18 15 14
27 29 31 32 34 35 36 37 37 38 39 38 36 34 31 30 28 27 25 23 22 21 20 21 21 22 22 22 21 20 19 18 18 18 19 18 17 17 18 18 17 16
25 27 29 32 34 35 36 38 40 40 40 38 36 34 33 31 29 27 24 23 21 20 19 18 19 19 18 16 15 14 13 13 13 14 14 14 15 15 15 16 17 17
25 25 27 31 34 35 37 39 42 42 41 39 37 35 33 30 27 25 22 21 19 18 16 15 15 14 13 13 12 11 10 10 11 11 11 12 13 13 13 13 14 15
24 24 26 30 33 36 38 41 43 42 40 37 35 32 28 26 23 21 20 19 17 15 14 14 13 12 12 11 10 10 10 10 10 10 10 11 11 12 11 11 10 10
25 25 26 29 32 34 37 37 36 35 32 30 28 25 23 21 20 19 18 17 15 14 13 13 12 11 11 10 10 11 11 10 10 10 9 10 10 10 10 10 10 10
25 25 25 27 28 30 30 29 29 29 28 28 26 24 21 20 19 18 17 16 15 14 13 13 11 11 11 11 12 12 11 11 11 11 11 10 10 10 10 10 9 9
24 25 24 25 26 27 27 28 29 29 29 27 25 23 21 20 19 18 17 16 15 15 14 13 12 12 13 13 13 13 13 12 12 12 12 12 12 12 12 11 11 11
24 24 25 25 27 28 29 29 30 29 27 25 23 22 21 20 19 18 17 16 16 16 16 15 15 15 15 15 15 14 13 13 12 12 12 12 12 12 12 12 13 13
23 24 26 27 29 30 30 30 29 27 26 24 23 22 22 21 20 18 18 18 18 18 18 18 18 18 17 17 16 15 14 13 12 12 12 12 12 11 12 12 12 12
23 25 27 28 29 29 29 29 28 27 25 24 24 24 23 23 22 21 21 22 21 21 21 20 19 19 18 17 15 14 13 12 12 11 11 11 10 10 10 9 9 9
24 25 26 27 28 28 28 28 28 27 27 26 26 26 26 26 25 25 25 24 23 22 21 20 20 18 17 16 15 13 12 11 11 10 10 9 9 8 8 8 7 7
25 26 27 28 29 29 29 29 29 29 29 29 28 28 28 28 27 27 26 25 24 23 22 21 21 20 18 17 16 14 14 13 12 11 11 11 10 10 10 9 9 9
26 27 28 29 30 30 31 31 31 31 31 31 30 29 29 28 28 27 27 25 24 24 23 22 21 20 19 18 17 16 15 15 14 14 13 13 12 12 12 11 11 11
26 28 29 30 31 32 32 33 32 32 32 31 30 30 30 29 29 28 27 26 24 23 22 21 19 19 18 17 17 17 16 16 15 15 14 14 13 12 12 11 11 10
27 28 29 30 31 32 32 32 31 31 31 30 31 31 30 29 28 27 25 24 23 22 21 20 19 18 17 17 16 16 16 15 14 14 13 13 12 12 11 10 10 9
28 28 29 29 30 30 30 30 30 30 30 30 30 30 29 28 26 25 24 23 22 21 21 20 20 19 18 16 15 14 14 14 14 13 12 11 11 10 10 9 8 8
27 27 27 28 28 28 29 29 30 30 30 30 29 28 27 26 25 24 24 23 22 21 21 20 20 19 18 17 15 14 13 13 13 12 11 11 10 9 9 8 7 7
25 26 27 27 28 28 29 29 29 30 29 29 28 27 26 26 25 24 24 22 21 20 20 20 20 19 18 16 15 14 12 12 12 11 10 10 9 8 7 6 5 4
24 25 27 27 28 28 29 29 29 29 28 27 27 26 25 25 24 24 23 22 20 20 19 19 19 18 17 15 14 13 12 11 10 10 9 8 7 6 5 4 3 2
23 24 25 26 26 26 27 27 27 27 27 26 25 24 23 23 22 22 22 21 20 19 18 18 18 16 15 13 12 11 10 9 9 8 7 7 6 4 3 2 1 1
22 22 23 24 24 24 24 24 25 25 24 23 23 22 22 21 21 20 20 19 18 17 16 16 16 15 13 12 11 9 8 8 7 7 6 5 4 3 2 1 1 2
22 22 22 23 22 22 22 22 22 22 22 21 20 20 20 19 18 18 18 17 16 16 15 14 14 13 11 10 9 8 7 6 6 5 4 3 3 1 1 1 2 4
22 22 22 22 22 21 21 20 20 20 20 19 18 18 18 17 16 16 15 15 15 14 13 12 11 11 10 8 8 7 6 6 5 4 3 2 1 0 1 2 4 4
21 21 21 21 20 20 20 20 19 19 19 18 16 16 16 16 14 13 13 13 13 12 12 10 9 9 8 7 7 6 6 6 5 4 3 2 1 1 3 4 5 6
21 21 21 20 20 20 20 19 18 18 17 17 16 15 15 14 13 11 10 10 10 10 10 8 8 7 7 6 6 6 6 5 5 4 3 2 2 2 3 5 6 7
Wind_Direction
241 241 240 236 236 238 237 233 231 229 226 222 218 214 209 206 206 209 214 220 226 234 244 254 264 273 280 282 283 282 281 279 279 280 281 280 277 275 276 279 283 287
245 239 236 233 233 235 233 228 225 223 218 212 207 205 202 203 206 209 213 218 225 233 243 254 263 269 273 276 278 276 274 271 271 274 276 273 270 267 267 267 268 271
249 239 233 231 232 234 233 227 222 219 213 206 200 199 199 201 204 207 211 218 227 235 242 250 257 260 264 266 265 261 258 256 256 261 262 257 256 257 255 253 252 256
249 239 232 231 232 232 232 228 221 215 208 202 197 196 197 199 202 207 213 220 225 229 234 240 244 250 255 252 247 243 239 237 241 248 246 239 240 244 245 245 245 246
248 241 234 233 233 230 227 222 216 209 203 198 195 194 196 200 205 210 215 217 217 219 222 224 226 233 237 235 232 230 226 228 233 234 232 228 229 232 232 234 234 233
245 241 236 234 233 229 223 217 210 204 199 197 198 200 203 205 207 209 209 208 209 211 211 208 210 217 221 221 220 216 214 218 218 214 211 211 214 217 218 219 220 222
243 238 235 232 230 227 222 214 207 204 203 204 206 207 207 206 204 201 199 201 201 200 199 198 202 206 204 205 205 204 206 207 205 203 201 200 202 204 206 210 214 219
240 235 230 227 224 221 215 207 204 203 204 205 205 204 203 201 199 197 195 195 194 191 191 191 191 192 191 191 192 193 195 198 199 203 204 205 208 210 213 219 223 228
234 229 223 218 215 211 207 204 201 199 199 201 202 201 199 196 194 194 191 188 186 184 183 182 181 180 181 181 182 185 189 193 197 201 204 205 210 213 216 221 224 230
226 222 217 213 209 205 203 201 199 198 199 200 200 197 192 189 187 186 183 181 180 178 176 176 176 177 179 180 183 188 192 197 201 204 207 210 212 214 216 217 218 221
218 214 211 207 204 202 199 198 198 198 198 195 193 190 185 182 180 177 177 178 178 177 175 175 176 178 179 181 183 188 192 196 199 201 203 205 204 205 204 202 202 202
212 208 206 203 201 200 198 197 196 193 190 188 186 184 180 177 176 175 176 177 176 175 173 172 173 172 173 173 174 176 178 179 181 181 180 178 175 173 170 167 165 164
207 203 202 200 198 197 195 193 191 187 184 182 180 180 177 175 174 173 173 172 170 167 166 166 165 163 162 162 162 163 163 162 160 158 156 154 151 148 144 139 137 133
200 197 196 194 192 190 188 186 184 182 180 178 176 176 174 172 170 168 166 165 163 161 161 161 161 159 158 157 156 156 155 154 152 149 146 143 140 137 134 131 128 123
190 187 186 185 183 182 180 179 177 176 175 174 173 171 168 166 164 162 161 159 158 158 157 156 155 154 153 153 153 152 150 149 147 144 142 139 135 133 130 128 125 120
178 176 174 174 174 174 173 173 172 172 171 169 167 165 162 160 158 157 156 155 153 152 150 148 147 145 144 146 148 147 145 143 141 139 136 135 133 130 128 125 122 118
170 169 168 168 168 168 168 168 168 167 166 164 162 159 156 155 154 151 150 149 147 146 144 143 140 136 135 136 136 138 138 136 134 132 131 129 128 126 125 123 120 117
165 165 164 163 163 163 162 162 162 161 160 158 155 152 150 150 148 146 144 143 143 142 141 139 135 131 129 128 127 128 131 131 129 129 128 127 126 124 124 122 120 117
162 162 161 159 159 158 157 157 157 155 154 152 150 148 147 146 144 142 139 138 139 139 137 134 130 126 125 124 123 123 125 126 126 126 126 125 123 124 123 123 120 115
158 159 159 156 155 155 154 154 153 150 148 148 145 144 143 142 141 139 136 134 133 133 132 129 124 121 119 120 121 121 123 125 124 123 122 122 121 122 122 121 115 105
154 155 155 153 151 151 151 149 148 145 143 142 141 140 139 137 136 136 134 132 130 129 127 123 118 115 114 114 115 116 118 122 121 120 121 121 122 120 116 112 93 32
150 151 150 148 147 148 147 145 144 141 138 138 139 138 137 135 134 134 134 133 130 126 123 121 118 117 114 111 110 109 110 114 115 117 120 121 121 118 106 88 356 334
148 149 148 146 146 145 143 142 141 139 137 138 138 136 134 133 133 133 133 132 128 122 121 121 119 116 112 110 108 105 103 104 104 105 109 112 117 122 100 329 318 322
148 149 148 147 146 145 142 140 140 139 138 138 138 135 132 130 131 131 131 128 123 118 118 120 116 112 109 108 103 96 93 90 90 93 95 96 103 352 304 305 309 314
149 148 147 146 145 144 142 141 141 140 138 137 136 133 131 128 127 128 127 123 118 113 111 112 110 106 104 100 93 86 81 77 77 81 79 72 56 333 311 310 311 313
149 147 146 145 144 143 142 142 141 139 136 135 133 132 130 127 124 124 121 114 109 105 102 100 97 93 89 84 77 72 70 66 64 61 51 38 26 348 325 320 319 318